Plymouth, NH

5:00 PM EDT on September 20, 2017 (GMT -0400)
Plymouth

Weather History for K1P1 - April, 2013

Change the Weather History Date:

Thursday, April 11, 2013

  Actual Average (KLCI) Record (KLCI)
Temperature  
Mean Temperature 41 °F -  
Max Temperature 44 °F 51 °F 82 °F (2017)
Min Temperature 38 °F 30 °F 21 °F (1997)
Degree Days  
Heating Degree Days 24    
Moisture  
Dew Point 26 °F    
Average Humidity 59    
Maximum Humidity 99    
Minimum Humidity 27    
Precipitation  
Precipitation 0.03 in - - ()
Sea Level Pressure  
Sea Level Pressure 30.01 in    
Wind  
Wind Speed 5 mph (WNW)    
Max Wind Speed 14 mph    
Max Gust Speed 23 mph    
Visibility 9 miles    
Events Rain    
Averages and records for this station are not official NWS values.
T = Trace of Precipitation, MM = Missing Value Source: NWS Daily Summary

Daily Weather History Graph

Daily Weather History Graph

Search for Another Location

Airport or City:

Trip Planner

Search our weather history database for the weather conditions in past years. The results will help you decide how hot, cold, wet, or windy it might be!

Date:

Astronomy

Apr. 11, 2013 Rise Set
Actual Time 6:10 AM EDT 7:26 PM EDT
Civil Twilight 5:40 AM EDT 7:55 PM EDT
Nautical Twilight 5:05 AM EDT 8:31 PM EDT
Astronomical Twilight 4:27 AM EDT 9:09 PM EDT
Moon 6:37 AM EDT (4/11) 9:01 PM EDT (4/11)
Length of Visible Light 14h 14m
Length of Day
13h 15m
New Moon, 2% of the Moon is Illuminated
Apr 11
New Moon
Apr 18
First Quarter
Apr 25
Full
May 2
Last Quarter
May 9
New

Hourly Weather History & Observations

Time (EDT) Temp. Windchill Dew Point Humidity Pressure Visibility Wind Dir Wind Speed Gust Speed Precip Events Conditions
12:15 AM 43.7 °F - 42.8 °F 97% 29.92 in 2.0 mi Calm Calm - N/A   Drizzle
12:35 AM 43.7 °F - 42.8 °F 97% 29.91 in 2.5 mi Calm Calm - 0.02 in Rain Rain
12:55 AM 43.3 °F - 42.6 °F 97% 29.91 in 3.0 mi Calm Calm - 0.02 in   Drizzle
1:15 AM 43.0 °F - 42.4 °F 98% 29.92 in 4.0 mi Calm Calm - 0.01 in   Light Drizzle
1:35 AM 42.6 °F - 42.1 °F 98% 29.92 in 4.0 mi Calm Calm - 0.01 in   Light Drizzle
1:55 AM 42.4 °F 40.7 °F 41.9 °F 98% 29.91 in 4.0 mi NW 3.5 mph - 0.01 in   Mist
2:15 AM 42.3 °F 40.5 °F 41.9 °F 99% 29.90 in 5.0 mi NW 3.5 mph - N/A   Light Drizzle
2:35 AM 42.1 °F 40.2 °F 41.5 °F 98% 29.89 in 4.0 mi NW 3.5 mph - N/A   Drizzle
2:55 AM 41.9 °F - 41.4 °F 98% 29.88 in 4.0 mi Calm Calm - N/A   Light Drizzle
3:15 AM 41.9 °F - 41.2 °F 97% 29.87 in 4.0 mi Calm Calm - N/A   Mist
3:35 AM 41.9 °F 39.0 °F 41.2 °F 97% 29.88 in 10.0 mi West 4.6 mph - N/A   Unknown
3:55 AM 41.4 °F 39.4 °F 40.6 °F 97% 29.87 in 10.0 mi WNW 3.5 mph - N/A   Unknown
4:15 AM 41.5 °F 39.6 °F 40.3 °F 95% 29.88 in 10.0 mi WNW 3.5 mph - N/A   Unknown
4:35 AM 41.5 °F 39.6 °F 39.0 °F 91% 29.88 in 10.0 mi WNW 3.5 mph - N/A   Unknown
4:55 AM 41.5 °F 37.8 °F 38.3 °F 88% 29.89 in 10.0 mi WNW 5.8 mph - N/A   Unknown
5:15 AM 41.4 °F 39.4 °F 38.3 °F 89% 29.90 in 10.0 mi West 3.5 mph - N/A   Unknown
5:35 AM 41.4 °F 38.4 °F 37.8 °F 87% 29.90 in 10.0 mi West 4.6 mph - N/A   Unknown
5:55 AM 41.5 °F 38.6 °F 36.9 °F 83% 29.91 in 10.0 mi WNW 4.6 mph - N/A   Unknown
6:15 AM 41.5 °F 39.6 °F 36.7 °F 83% 29.92 in 10.0 mi West 3.5 mph - N/A   Unknown
6:35 AM 41.0 °F 37.1 °F 36.1 °F 83% 29.93 in 10.0 mi WNW 5.8 mph - N/A   Unknown
6:55 AM 41.2 °F 36.0 °F 35.6 °F 81% 29.94 in 10.0 mi WNW 8.1 mph - N/A   Unknown
7:15 AM 41.0 °F 36.4 °F 35.4 °F 81% 29.95 in 10.0 mi WNW 6.9 mph - N/A   Unknown
7:35 AM 40.5 °F 35.1 °F 35.6 °F 83% 29.95 in 10.0 mi West 8.1 mph - N/A   Unknown
7:55 AM 40.1 °F 35.3 °F 34.5 °F 80% 29.96 in 10.0 mi WNW 6.9 mph - N/A   Unknown
8:15 AM 40.1 °F 34.1 °F 32.7 °F 75% 29.97 in 10.0 mi West 9.2 mph - N/A   Unknown
8:35 AM 39.9 °F 32.5 °F 32.4 °F 74% 29.98 in 10.0 mi WNW 12.7 mph - N/A   Unknown
8:55 AM 38.7 °F 32.4 °F 31.6 °F 76% 29.98 in 10.0 mi WNW 9.2 mph - N/A   Unknown
9:15 AM 38.7 °F 31.4 °F 30.9 °F 74% 29.98 in 10.0 mi WNW 11.5 mph 17.3 mph N/A   Unknown
9:35 AM 39.7 °F 33.7 °F 30.7 °F 70% 29.99 in 10.0 mi West 9.2 mph 16.1 mph N/A   Unknown
9:55 AM 41.0 °F 34.7 °F 31.5 °F 69% 29.99 in 10.0 mi WNW 10.4 mph - N/A   Unknown
10:15 AM 41.5 °F 35.4 °F 30.4 °F 65% 30.00 in 10.0 mi West 10.4 mph - N/A   Unknown
10:35 AM 42.1 °F 37.1 °F 29.7 °F 61% 30.00 in 10.0 mi West 8.1 mph - N/A   Unknown
11:15 AM 43.3 °F 37.7 °F 25.0 °F 48% 30.01 in 10.0 mi West 10.4 mph 16.1 mph N/A   Unknown
11:35 AM 43.5 °F 36.7 °F 23.4 °F 45% 30.01 in 10.0 mi West 13.8 mph 17.3 mph N/A   Unknown
11:55 AM 43.9 °F 38.3 °F 22.5 °F 43% 30.02 in 10.0 mi West 10.4 mph 23.0 mph N/A   Unknown
12:15 PM 44.8 °F 38.7 °F 22.6 °F 42% 30.03 in 10.0 mi WNW 12.7 mph 18.4 mph N/A   Unknown
12:35 PM 44.4 °F 38.6 °F 21.0 °F 39% 30.04 in 10.0 mi West 11.5 mph 19.6 mph N/A   Unknown
12:55 PM 44.1 °F 38.1 °F 21.2 °F 40% 30.05 in 10.0 mi West 11.5 mph 16.1 mph N/A   Unknown
1:15 PM 43.9 °F 37.9 °F 20.1 °F 39% 30.05 in 10.0 mi WNW 11.5 mph 16.1 mph N/A   Unknown
1:35 PM 43.5 °F 37.1 °F 18.9 °F 37% 30.05 in 10.0 mi WNW 12.7 mph - N/A   Unknown
1:55 PM 43.7 °F 38.1 °F 18.1 °F 36% 30.05 in 10.0 mi WNW 10.4 mph 16.1 mph N/A   Unknown
2:15 PM 43.7 °F 38.1 °F 17.6 °F 35% 30.05 in 10.0 mi WNW 10.4 mph - N/A   Unknown
2:35 PM 43.2 °F 37.4 °F 14.9 °F 32% 30.06 in 10.0 mi WNW 10.4 mph - N/A   Unknown
2:55 PM 42.8 °F 37.5 °F 14.7 °F 32% 30.05 in 10.0 mi WNW 9.2 mph - N/A   Unknown
3:15 PM 42.8 °F 37.0 °F 13.5 °F 30% 30.05 in 10.0 mi WNW 10.4 mph - N/A   Unknown
3:35 PM 43.2 °F 37.4 °F 13.1 °F 30% 30.03 in 10.0 mi West 10.4 mph - N/A   Unknown
3:55 PM 43.7 °F 39.1 °F 12.9 °F 29% 30.02 in 10.0 mi West 8.1 mph - N/A   Unknown
4:15 PM 43.7 °F 39.7 °F 12.4 °F 28% 30.03 in 10.0 mi West 6.9 mph - N/A   Unknown
4:35 PM 43.9 °F 39.3 °F 12.4 °F 28% 30.04 in 10.0 mi West 8.1 mph - N/A   Unknown
4:55 PM 44.1 °F 38.6 °F 12.4 °F 28% 30.04 in 10.0 mi West 10.4 mph - N/A   Unknown
5:15 PM 43.7 °F 39.1 °F 11.5 °F 27% 30.06 in 10.0 mi WNW 8.1 mph - N/A   Unknown
5:35 PM 43.3 °F 39.9 °F 13.6 °F 30% 30.06 in 10.0 mi West 5.8 mph - N/A   Unknown
6:15 PM 43.0 °F 38.8 °F 14.0 °F 31% 30.07 in 10.0 mi West 6.9 mph - N/A   Unknown
6:35 PM 42.8 °F 38.6 °F 13.5 °F 30% 30.07 in 10.0 mi West 6.9 mph - N/A   Unknown
6:55 PM 42.3 °F 37.3 °F 13.5 °F 31% 30.08 in 10.0 mi West 8.1 mph - N/A   Unknown
7:15 PM 41.9 °F 38.2 °F 14.5 °F 33% 30.08 in 10.0 mi WNW 5.8 mph - N/A   Unknown
7:35 PM 41.2 °F 37.3 °F 14.9 °F 34% 30.08 in 10.0 mi West 5.8 mph - N/A   Unknown
7:55 PM 41.0 °F 38.0 °F 13.8 °F 33% 30.09 in 10.0 mi West 4.6 mph - N/A   Unknown
8:15 PM 40.6 °F 36.7 °F 15.3 °F 36% 30.09 in 10.0 mi West 5.8 mph - N/A   Unknown
8:35 PM 40.3 °F 37.1 °F 14.7 °F 35% 30.09 in 10.0 mi WNW 4.6 mph - N/A   Unknown
8:55 PM 40.1 °F - 14.4 °F 35% 30.09 in 10.0 mi Calm Calm - N/A   Unknown
9:15 PM 39.7 °F 36.5 °F 17.4 °F 41% 30.11 in 10.0 mi WNW 4.6 mph - N/A   Unknown
9:35 PM 39.6 °F 37.4 °F 15.4 °F 38% 30.12 in 10.0 mi WNW 3.5 mph - N/A   Unknown
9:55 PM 39.4 °F - 15.8 °F 38% 30.13 in 10.0 mi Calm Calm - N/A   Unknown
10:15 PM 39.4 °F 35.2 °F 14.9 °F 37% 30.12 in 10.0 mi West 5.8 mph - N/A   Unknown
10:35 PM 39.2 °F 37.0 °F 15.8 °F 39% 30.12 in 10.0 mi West 3.5 mph - N/A   Unknown
10:55 PM 38.5 °F 36.1 °F 16.7 °F 41% 30.12 in 10.0 mi NNW 3.5 mph - N/A   Unknown
11:15 PM 38.3 °F 34.8 °F 16.9 °F 42% 30.13 in 10.0 mi WNW 4.6 mph - N/A   Unknown
11:35 PM 38.3 °F - 17.4 °F 43% 30.14 in 10.0 mi Calm Calm - N/A   Unknown
11:55 PM 38.3 °F - 18.1 °F 44% 30.15 in 10.0 mi Calm Calm - N/A   Unknown